OneWeb SL0509

operational
NORAD ID: 54127 Int'l Des: 2022-138 Owner: ONEWEBN Country: UK Constellation: oneweb
LEOCIRCULARPOLARONEWEB_TYPE

Über OneWeb SL0509

Beschreibung wird geladen...

Live-Position

3D-Globus wird geladen...

Nächste Überflüge

Höhenverlauf

Altitude vs Time

uPlot chart will show altitude changes over time

Zweizeiliger Elementsatz

1 54127U 22138Q 26095.15616840 .00000074 00000-0 15274-3 0 9991
2 54127 87.9193 319.5204 0001840 85.1751 274.9592 13.19727499167174
Epoch: 5. Apr. 2026 • Age: 8 hours

Aktueller Status

Höhe 1197.0 km
Geschwindigkeit 7.26 km/s
Subsatellitenpunkt 71.87°N, 125.75°E
Startdatum 22. Okt. 2022
Alter 3.4 years
Typ internet

Technische Details

Klassifizierung Payload
Masse 148.00 kg
Trockenmasse 140.00 kg
Gesamtmasse 148.00 kg
Länge 1.30 m
Durchmesser 1.00 m
Spannweite 5.00 m
Form Trapezoid+2 pan
Hersteller ONEWUS
Bus-Typ ARROW
Phasenstatus In Orbit
Besitzer/Staat ONEWEBN/UK

Große Konstellationen

Loading constellations...